This is the latest recevied weather packets stored in our database for station/object W0SS-13. If no packets are shown the sender has not sent any weather packets the latest 1 day(s).
| Time | Temp. | Humidity | Pressure | Rain* | Wind** | Luminosity | Snow |
|---|---|---|---|---|---|---|---|
| 1777993927 | 8.89° C | 85% | 1013.2 hPa | 0 mm | 1.34 m/s, 99° | 75 W/m² | - |
| 1777993623 | 9.44° C | 85% | 1013.2 hPa | 0 mm | 0.89 m/s, 67° | 95 W/m² | - |
| 1777993321 | 8.89° C | 84% | 1013.3 hPa | 0 mm | 2.68 m/s, 36° | 103 W/m² | - |
| 1777993021 | 9.44° C | 84% | 1013.4 hPa | 0 mm | 1.79 m/s, 7° | 88 W/m² | - |
| 1777992720 | 8.89° C | 84% | 1013.3 hPa | 0 mm | 1.34 m/s, 33° | 123 W/m² | - |
| 1777992416 | 8.89° C | 84% | 1013.1 hPa | 0 mm | 1.79 m/s, 35° | 112 W/m² | - |
| 1777992115 | 9.44° C | 84% | 1012.7 hPa | 0 mm | 2.24 m/s, 67° | 111 W/m² | - |
| 1777991812 | 9.44° C | 85% | 1012.9 hPa | 0 mm | 1.34 m/s, 25° | 146 W/m² | - |
| 1777991509 | 8.89° C | 86% | 1013 hPa | 0 mm | 1.34 m/s, 62° | 139 W/m² | - |
| 1777991205 | 8.89° C | 86% | 1012.7 hPa | 0 mm | 0.45 m/s, 135° | 149 W/m² | - |
| 1777990903 | 8.89° C | 86% | 1012.8 hPa | 0 mm | 1.79 m/s, 71° | 206 W/m² | - |
| 1777990601 | 8.89° C | 87% | 1013 hPa | 1.78 mm | 0.45 m/s, 6° | 153 W/m² | - |
| 1777990297 | 8.89° C | 87% | 1013.3 hPa | 1.78 mm | 0.45 m/s, 17° | 109 W/m² | - |
| 1777989994 | 8.33° C | 87% | 1013.1 hPa | 1.27 mm | 0.45 m/s, 347° | 49 W/m² | - |
| 1777989691 | 8.89° C | 87% | 1012.8 hPa | 3.05 mm | 0.45 m/s, 161° | 40 W/m² | - |
| 1777989386 | 8.89° C | 86% | 1013.2 hPa | 1.78 mm | 0.89 m/s, 32° | 30 W/m² | - |
| 1777989083 | 8.89° C | 86% | 1012.9 hPa | 0 mm | 1.79 m/s, 80° | 39 W/m² | - |
| 1777988779 | 8.89° C | 85% | 1013 hPa | 1.27 mm | 1.34 m/s, 8° | 34 W/m² | - |
| 1777988477 | 8.89° C | 85% | 1013.4 hPa | 1.27 mm | 1.34 m/s, 342° | 17 W/m² | - |
| 1777988174 | 8.89° C | 85% | 1013 hPa | 1.78 mm | 0 m/s | 17 W/m² | - |
| 1777987869 | 8.89° C | 85% | 1013.1 hPa | 3.56 mm | 1.34 m/s, 332° | 17 W/m² | - |
| 1777987566 | 8.89° C | 85% | 1012.3 hPa | 1.78 mm | 0.89 m/s, 32° | 30 W/m² | - |
| 1777987264 | 8.89° C | 86% | 1013 hPa | 1.27 mm | 0.45 m/s, 358° | 29 W/m² | - |
| 1777986960 | 8.89° C | 86% | 1013.1 hPa | 1.27 mm | 0.89 m/s, 281° | 10 W/m² | - |
| 1777986658 | 8.89° C | 86% | 1012.2 hPa | 3.05 mm | 0.89 m/s, 311° | 9 W/m² | - |
* Rain latest hour (hover to see other rain measurements)
** Current wind speed in m/s (hover to see current wind gust speed)